Zurück zum Katalog

SL-12 DEB

LostHEO
NORAD 44984·DEBRIS·🇷🇺 Russia

Gestartet Dec 25, 2006 von Baikonur Cosmodrome

Loading…

Nächste Überflüge (nächste 24 Stunden)

TLE

VeraltetSource: Space-Track

Epoche: Oct 26, 2025, 16:39 UTC

1 44984U 06062U   25299.69424706  .00000050  00000-0  41489-3 0  9992
2 44984  63.9614  85.6891 5556655 335.7488   5.8592  4.23532052 92626

Verfolge SL-12 DEB in Echtzeit mit AllMySat

Download on the App Store